SCP
0 1 1 1 1 1 0 0 0 0 0 0 0 0 0 0 0 0 0 0 0 0 0 0 0 0 0 0 0 0 0 0 0 0 0 0 0 0 0 0 0 0 0
0 1 1 1 1 1 1 1 1 1 0 0 0 0 0 0 0 0 0 0 0 0 0 0 0 0 0 0 0 0 0 0 0 0 0 0 0 0 0 0 0 0 0
0 1 1 1 1 1 1 1 1 1 0 0 0 0 0 0 0 0 0 0 0 0 0 0 0 0 0 0 0 0 0 0 0 0 0 0 0 0 0 0 0 0 0
0 1 1 1 1 1 1 1 1 1 1 0 0 0 0 0 0 0 0 0 0 0 0 0 0 0 0 0 0 0 0 0 0 0 0 0 0 0 0 0 0 0 0
1 1 1 1 1 1 1 1 1 1 1 0 0 0 0 0 0 0 0 0 0 0 0 0 0 0 0 0 0 0 0 0 0 0 0 0 0 0 0 0 0 0 0
1 1 1 1 1 1 1 1 1 1 1 0 0 0 0 0 0 0 0 0 0 0 0 0 0 0 0 0 0 0 0 0 0 0 0 0 0 0 0 0 0 0 0
1 1 1 1 1 1 1 1 1 1 1 0 0 0 0 0 0 0 0 0 0 0 0 0 0 0 0 0 0 0 0 0 0 0 0 0 0 0 0 0 0 0 0
1 1 0 1 1 1 1 1 1 0 0 0 0 0 0 0 0 0 0 0 0 0 0 0 0 0 0 0 0 0 0 0 0 0 0 0 0 0 0 0 0 0 0
1 1 0 0 1 1 1 1 0 0 0 0 0 0 0 0 0 0 0 0 0 0 0 0 0 0 0 0 0 0 0 0 0 0 0 0 0 0 0 0 0 0 0
1 1 1 0 1 1 1 1 0 0 0 0 0 0 0 0 0 0 0 0 0 0 0 0 0 0 0 0 0 0 0 0 0 0 0 0 0 0 0 0 0 0 0
1 1 1 1 1 1 1 1 1 0 0 0 0 0 0 0 0 0 0 0 0 0 0 0 0 0 0 0 0 0 0 0 0 0 0 0 0 0 0 0 0 0 0
1 1 1 1 1 1 1 1 1 1 0 0 0 0 0 0 0 0 0 0 0 0 0 0 0 0 0 0 0 0 0 0 0 0 0 0 0 0 0 0 0 0 0
1 1 1 1 1 1 1 1 1 1 1 0 0 0 0 0 0 0 0 0 0 0 0 0 0 0 0 0 0 0 0 0 0 0 0 0 0 0 0 0 0 0 0
0 1 1 1 1 1 1 1 1 2 1 1 0 0 0 0 0 0 0 0 0 0 0 0 0 0 0 0 0 0 0 0 0 0 0 0 0 0 0 0 0 0 0
0 1 1 1 1 1 1 1 1 1 1 1 1 1 0 0 0 0 0 0 0 0 0 0 0 0 0 0 0 0 0 0 0 0 0 0 0 0 0 0 0 0 0
1 1 1 1 1 1 1 1 1 1 1 1 1 1 1 1 0 0 0 0 0 0 0 0 0 0 0 0 0 0 0 0 0 0 0 0 0 0 0 0 0 0 0
1 1 1 1 1 1 1 1 1 1 1 1 1 1 1 1 1 1 0 0 0 0 0 0 0 0 0 0 0 0 0 0 0 0 0 0 0 0 0 0 0 0 0
1 1 1 1 1 1 1 1 1 1 1 1 1 1 1 1 1 1 0 0 0 0 0 0 0 0 0 0 0 0 0 0 0 0 0 0 0 0 0 0 0 0 0
1 1 2 1 1 1 1 1 0 0 1 1 1 1 1 1 1 1 1 0 0 0 0 0 0 0 0 0 0 0 0 0 0 0 0 0 0 0 0 0 0 0 0
2 2 2 2 1 1 1 1 0 0 1 1 1 1 1 1 1 1 1 1 0 0 0 0 0 0 0 0 0 0 0 0 0 0 0 0 0 0 0 0 0 0 0
3 3 2 2 2 1 1 1 1 1 1 1 1 1 1 1 1 1 1 1 0 0 0 0 0 0 0 0 0 0 0 0 0 0 0 0 0 0 0 0 0 0 0
4 3 3 2 2 2 1 1 1 1 1 1 1 1 1 1 1 1 1 1 1 0 0 0 0 0 0 0 0 0 0 0 0 0 0 0 0 0 0 0 0 0 0
3 3 2 2 2 2 1 1 1 1 1 1 1 1 1 1 1 1 1 1 1 1 0 0 0 0 0 0 0 0 0 0 0 0 0 0 0 0 0 0 0 0 0
2 2 2 2 2 2 2 1 1 1 1 1 1 1 1 1 1 1 1 1 1 1 1 1 1 0 0 0 0 0 0 0 0 0 0 0 0 0 0 0 0 0 0
1 1 1 1 2 2 2 2 1 1 1 1 1 1 1 1 1 1 1 1 1 1 1 1 1 0 0 0 0 0 0 0 0 0 0 0 0 0 0 0 0 0 0
0 1 1 1 1 2 2 2 1 1 1 1 1 1 1 1 1 1 1 1 1 1 0 1 1 1 0 0 0 0 0 0 0 0 0 0 0 0 0 0 0 0 0
Wind_Speed
10 14 15 15 15 13 13 12 12 12 11 11 11 11 11 11 11 10 10 11 11 12 13 13 13 13 13 13 13 13 13 12 12 11 12 12 12 12 12 11 10 8 12
13 15 15 15 15 14 13 12 12 11 11 11 11 11 11 11 11 11 11 11 11 12 12 12 12 12 12 12 12 11 10 9 8 6 7 9 10 10 11 11 11 7 10
14 15 14 13 14 14 13 12 12 11 11 11 11 11 11 11 10 10 10 10 11 11 11 11 11 11 10 10 10 10 8 6 4 3 2 3 6 9 9 9 9 9 9
14 14 13 13 14 14 13 12 11 11 11 11 11 11 11 10 10 10 10 9 10 9 9 9 9 9 9 9 8 8 6 4 5 6 2 3 5 8 7 8 7 7 7
12 12 14 14 14 14 13 12 11 10 11 11 10 10 10 10 10 9 9 9 8 8 8 8 8 8 7 7 6 6 4 4 7 5 1 4 5 6 6 6 6 5 5
10 12 14 14 14 14 12 12 11 10 10 10 10 10 10 9 9 9 8 7 7 7 7 6 7 7 6 5 5 4 3 5 7 3 2 4 4 5 5 4 3 3 2
10 11 13 13 13 13 12 12 11 10 10 10 10 10 9 9 8 8 7 7 6 6 6 5 6 6 5 4 3 2 3 6 4 2 2 3 4 4 3 2 1 1 1
10 11 11 11 12 12 11 10 10 9 9 9 9 9 9 9 8 8 7 7 6 5 4 4 5 5 3 2 2 1 2 5 5 4 1 3 5 3 1 1 1 2 2
10 10 9 8 9 10 10 10 9 9 8 8 8 8 8 8 7 7 6 6 6 5 4 4 4 4 3 2 1 1 2 4 4 3 1 3 4 2 1 2 3 3 4
8 9 9 8 8 7 7 9 9 8 8 8 8 8 8 7 7 7 6 5 5 5 5 4 4 4 3 3 3 3 4 4 4 4 1 3 4 1 3 4 4 5 5
7 7 8 8 8 8 7 9 8 8 8 8 7 8 7 5 6 6 7 7 6 5 5 5 5 5 4 5 6 6 4 3 3 2 0 4 3 2 4 5 6 6 6
7 6 6 8 7 7 7 7 5 6 6 6 5 7 5 5 4 5 8 8 7 6 5 6 6 5 4 3 5 6 3 4 3 2 1 4 4 4 5 6 7 7 7
7 7 6 7 7 6 5 5 4 4 5 6 7 7 5 4 3 3 3 4 5 5 4 5 5 4 4 3 2 3 4 3 2 1 2 5 5 6 7 8 8 8 8
7 8 6 6 6 6 5 4 4 3 3 4 5 6 5 3 3 3 3 4 4 3 4 3 3 4 4 4 3 3 3 2 2 1 2 5 6 7 8 8 9 9 8
7 8 7 6 6 6 5 4 4 4 4 4 4 5 5 4 4 3 3 3 3 3 3 3 3 4 3 3 3 3 3 3 3 2 2 5 6 7 8 9 9 8 8
6 7 7 7 6 6 5 4 3 4 4 4 4 5 5 4 4 4 4 3 3 3 3 3 4 3 3 2 3 3 4 4 3 3 3 3 5 7 8 8 8 8 8
6 6 7 7 6 6 6 5 4 3 4 4 4 6 6 5 4 4 4 4 3 3 3 2 3 2 2 3 3 4 4 4 3 3 3 2 2 5 6 7 7 8 8
4 5 6 6 6 6 6 5 4 4 4 4 4 4 6 6 5 4 4 4 4 3 3 3 2 2 3 3 3 3 3 3 4 4 3 3 2 2 4 6 7 7 8
3 3 4 5 6 6 5 4 4 4 4 3 3 4 5 6 6 4 4 4 5 4 4 4 3 3 3 3 3 3 3 3 4 4 4 4 3 3 2 3 5 6 7
2 2 3 3 3 4 4 4 3 3 3 3 3 4 5 5 6 5 4 4 4 4 4 4 4 4 3 3 3 3 3 4 4 4 5 4 4 4 4 3 3 3 6
2 2 2 2 3 3 3 4 4 4 4 4 4 5 6 5 6 6 4 4 4 4 5 5 4 4 3 2 2 3 4 6 6 5 4 3 4 4 3 3 3 2 2
3 3 2 1 1 2 2 3 2 2 2 3 3 3 5 5 5 5 6 5 5 4 4 5 4 3 3 3 3 2 2 3 4 5 4 4 4 3 3 3 3 3 2
6 5 4 3 2 0 1 1 1 1 0 1 2 2 3 3 4 4 6 5 5 5 5 5 5 6 5 4 4 3 3 4 2 2 4 4 3 2 3 2 3 3 3
6 5 5 5 5 3 1 1 2 2 2 2 2 1 1 2 2 2 3 4 4 4 5 5 5 5 5 5 4 5 4 3 2 2 2 2 3 3 3 3 3 2 2
6 5 5 5 5 5 4 3 1 0 1 1 0 0 1 1 1 1 2 2 3 4 4 5 5 5 5 5 4 3 4 4 4 3 4 3 2 3 3 3 2 2 2
6 5 5 4 5 5 5 4 3 2 2 2 1 1 1 1 1 1 1 2 2 2 3 4 4 5 5 5 5 4 3 3 4 4 5 4 4 3 3 2 2 2 2
Wind_Direction
130 137 147 148 147 145 142 138 134 132 131 129 126 120 113 110 106 101 95 97 97 94 91 88 84 81 79 78 77 76 74 74 76 78 78 76 72 66 59 52 63 64 65
127 137 147 148 148 147 145 142 140 139 137 134 129 123 115 110 106 101 98 98 98 96 93 90 87 83 83 81 79 78 77 74 74 74 83 82 77 70 64 58 62 67 66
127 137 148 147 147 146 146 144 143 144 142 139 134 127 120 115 111 105 101 100 100 98 97 95 91 88 87 85 82 79 76 64 36 2 12 105 87 75 69 65 63 63 62
131 141 149 146 147 147 147 147 147 147 147 143 137 133 127 123 119 113 108 105 102 100 100 100 98 94 92 89 85 80 70 37 349 332 352 91 87 77 71 66 63 61 59
130 141 141 146 149 149 150 151 152 150 148 146 144 139 134 129 126 121 116 112 109 106 103 103 104 101 96 91 86 77 55 360 331 321 5 82 85 82 73 66 62 60 54
129 134 142 149 151 152 152 154 154 154 152 150 147 146 141 135 132 127 122 118 117 114 111 109 110 107 101 93 84 68 22 338 321 309 41 75 88 86 74 64 57 59 50
127 128 146 150 152 154 156 158 158 158 155 153 152 149 144 141 137 134 132 129 127 124 120 118 122 119 112 104 88 60 358 330 315 331 50 83 95 92 70 45 23 18 6
125 127 142 147 151 156 159 160 161 162 158 156 156 151 150 149 148 146 146 146 144 139 133 131 131 131 129 125 112 49 342 319 323 323 45 95 109 103 66 3 325 309 311
126 130 142 150 155 156 160 162 164 163 161 160 158 155 153 155 156 155 156 161 161 156 152 148 146 147 157 169 188 248 298 303 304 301 316 103 118 109 316 296 298 288 287
129 137 150 159 160 163 165 164 164 165 165 162 159 155 156 162 166 169 170 173 175 174 173 170 167 178 198 214 224 236 262 289 273 272 267 127 132 182 284 291 293 289 286
141 149 157 162 166 166 170 171 168 169 171 168 166 166 166 178 180 180 185 176 180 188 192 193 194 202 215 230 231 233 243 251 266 270 259 133 162 242 277 284 287 287 286
161 166 166 165 167 168 171 160 175 179 175 184 179 175 188 198 188 175 172 176 182 192 202 209 210 213 220 232 227 223 232 241 258 263 212 175 203 253 275 280 281 281 281
171 173 176 168 167 168 161 162 173 178 175 191 191 183 189 190 174 164 155 167 182 194 207 211 209 216 219 227 218 203 224 240 247 254 229 199 217 252 269 274 276 277 279
174 176 178 172 167 171 166 172 169 171 173 183 189 186 181 176 179 174 169 173 180 187 196 200 199 208 220 232 236 233 242 245 245 238 233 213 220 244 262 269 273 274 275
180 175 178 177 175 172 173 180 178 178 178 182 182 190 187 177 180 186 183 182 187 188 187 196 204 211 217 227 233 237 249 254 252 249 247 227 225 238 255 264 269 270 272
182 176 175 179 181 176 179 183 187 184 180 182 180 186 191 185 182 185 187 189 195 196 195 195 203 208 211 216 229 233 240 244 243 240 239 239 235 236 247 259 265 269 271
178 177 178 180 183 184 186 186 189 194 188 187 186 187 188 188 191 190 191 193 197 198 199 198 212 213 213 218 228 235 238 237 236 240 240 232 228 230 236 251 263 268 272
170 177 178 177 182 191 194 191 190 197 197 192 190 190 192 190 191 197 198 199 198 193 191 195 205 215 224 226 233 242 241 234 235 241 241 238 231 230 231 241 254 261 267
159 165 174 176 184 192 195 195 198 198 201 193 190 198 198 194 196 199 204 204 197 192 196 198 203 207 220 229 234 239 243 238 236 237 238 237 233 227 221 223 233 248 258
128 144 156 168 187 193 191 196 201 203 206 205 200 202 204 202 202 202 204 207 202 195 199 197 206 211 216 225 240 246 243 241 237 236 238 236 233 228 223 223 220 237 245
75 93 138 163 180 177 189 196 201 207 205 207 210 208 208 207 203 199 201 205 207 207 205 200 203 213 219 210 233 264 257 244 234 234 227 227 234 230 224 224 219 220 234
43 44 62 99 154 179 195 195 199 201 210 212 214 215 215 214 207 203 203 206 206 209 215 213 207 209 216 199 193 222 273 278 247 228 215 221 226 228 229 223 216 219 221
33 27 26 23 22 75 173 162 140 153 190 232 235 228 230 226 219 210 210 210 208 206 213 217 214 209 217 213 202 195 212 236 283 254 223 215 219 221 225 225 221 219 216
30 25 25 23 20 13 25 109 142 179 207 223 234 230 229 223 227 216 218 218 216 214 218 220 218 221 214 221 219 219 222 213 215 277 276 233 224 222 224 225 220 215 209
29 28 25 25 23 17 19 26 73 222 247 253 254 278 236 221 224 223 212 215 224 226 230 232 228 224 221 223 220 217 233 243 231 234 264 261 249 234 224 223 215 212 210
26 26 25 30 29 25 23 22 19 6 356 11 357 314 285 290 267 290 256 228 228 235 241 242 238 237 232 231 232 222 211 218 224 228 246 256 256 250 237 228 215 211 211